Home > Time Zones > World Clock > Weather > U.S.A. > Gary > Past weeks

Flag for U.S.A. Weather past 2 weeks in Gary, Indiana, U.S.A.

Now
64 °F

Sunny.


Feels Like: 64 °F
Forecast: 64 / 80 °F
Wind: 3 mph from West

Location: Lansing Municipal Airport

Current Time: Aug 4, 2015 at 7:50:59 AM

Latest Report: Aug 4, 2015 at 7:15 AM


Visibility: 10 mi

Pressure: 29.96 "Hg

Humidity: 80%

Dew point: 58 °F

Location of GaryLocation

Historic Weather in Gary — Graph

°F

Gary temperature yesterday

Maximum temperature yesterday: 82 °F (at 1:35 PM)
Minimum temperature yesterday: 61 °F (at 11:55 PM)
Average temperature yesterday: 73 °F

Past Weeks' High & Low Weather Summary

 TemperatureHumidityPressure
High92 °F (Aug 2, 2:35 PM)99% (Aug 3, 5:55 AM)30.08 "Hg (Aug 3, 5:55 AM)
Low56 °F (Aug 4, 6:15 AM)16% (Jul 29, 4:15 PM)29.68 "Hg (Aug 2, 10:55 PM)
Average75 °F61%29.95 "Hg
* Reported Jul 20 6:15 AM — Aug 4 6:55 AM, Gary, Weather by CustomWeather, © 2015

Note: Actual official high and low records may vary slightly from our data, if they occured in-between our weather recording intervals... More about our weather records

Advertising

Gary weather history for previous 24 hours

 ConditionsComfort  
Time TempWeatherWind HumidityBarometerVisibility
6:55 AM
Tue, Aug 4
62 °FSunny.3 mph86%29.96 "Hg10 mi
6:35 AM58 °FSunny.No wind93%29.96 "Hg10 mi
6:15 AM56 °FSunny.No wind92%29.96 "Hg10 mi
5:55 AM57 °FSunny.No wind94%29.95 "Hg10 mi
5:35 AM58 °FClear.No wind91%29.94 "Hg10 mi
5:15 AM57 °FClear.No wind88%29.94 "Hg10 mi
4:55 AM57 °FClear.No wind91%29.94 "Hg10 mi
4:35 AM57 °FClear.No wind89%29.93 "Hg10 mi
4:15 AM58 °FClear.No wind87%29.93 "Hg10 mi
3:55 AM59 °FClear.No wind85%29.93 "Hg10 mi
3:35 AM59 °FClear.No wind86%29.93 "Hg10 mi
3:15 AM59 °FClear.No wind85%29.92 "Hg10 mi
2:55 AM60 °FClear.3 mph82%29.92 "Hg10 mi
2:35 AM60 °FClear.No wind82%29.92 "Hg10 mi
2:15 AM60 °FClear.No wind80%29.92 "Hg10 mi
1:55 AM63 °FClear.3 mph76%29.92 "Hg10 mi
1:35 AM60 °FClear.No wind82%29.92 "Hg10 mi
1:15 AM61 °FClear.No wind79%29.92 "Hg10 mi
12:55 AM60 °FClear.No wind82%29.92 "Hg10 mi
12:35 AM61 °FClear.5 mph79%29.92 "Hg10 mi
12:15 AM61 °FClear.3 mph79%29.92 "Hg10 mi
11:55 PM
Mon, Aug 3
61 °FClear.5 mph80%29.92 "Hg10 mi
11:35 PM62 °FClear.5 mph75%29.92 "Hg10 mi
10:55 PM62 °FClear.No wind77%29.92 "Hg10 mi
10:15 PM69 °FClear.5 mph60%29.92 "Hg10 mi
9:55 PM69 °FClear.3 mph56%29.91 "Hg10 mi
9:35 PM70 °FClear.5 mph54%29.91 "Hg10 mi
9:15 PM71 °FClear.3 mph50%29.90 "Hg10 mi
8:55 PM72 °FClear.6 mph47%29.89 "Hg10 mi
8:35 PM72 °FClear.5 mph46%29.88 "Hg10 mi
8:15 PM73 °FClear.7 mph43%29.88 "Hg10 mi
7:55 PM74 °FSunny.5 mph42%29.87 "Hg10 mi
7:35 PM76 °FSunny.6 mph38%29.87 "Hg10 mi
7:15 PM77 °FSunny.8 mph36%29.87 "Hg10 mi
6:55 PM78 °FSunny.9 mph36%29.87 "Hg10 mi
6:35 PM79 °FSunny.9 mph35%29.86 "Hg10 mi
6:15 PM80 °FSunny.12 mph33%29.86 "Hg10 mi
5:55 PM80 °FSunny.12 mph32%29.86 "Hg10 mi
5:35 PM81 °FSunny.10 mph29%29.86 "Hg10 mi
4:15 PM82 °FSunny.14 mph26%29.86 "Hg10 mi
3:55 PM82 °FSunny.10 mph28%29.86 "Hg10 mi
3:35 PM82 °FSunny.9 mph29%29.86 "Hg10 mi
3:15 PM82 °FSunny.12 mph31%29.86 "Hg10 mi
2:55 PM82 °FSunny.8 mph32%29.86 "Hg10 mi
2:35 PM82 °FSunny.13 mph33%29.86 "Hg10 mi
2:15 PM82 °FSunny.12 mph34%29.86 "Hg10 mi
1:55 PM82 °FSunny.9 mph36%29.86 "Hg10 mi
1:35 PM82 °FSunny.12 mph38%29.86 "Hg10 mi
1:15 PM82 °FSunny.13 mph40%29.86 "Hg10 mi
12:55 PM82 °FSunny.9 mph39%29.86 "Hg10 mi
12:15 PM81 °FScattered clouds.7 mph44%29.86 "Hg10 mi
11:55 AM80 °FSunny.No wind44%29.86 "Hg10 mi
11:35 AM80 °FSunny.8 mph46%29.86 "Hg10 mi
11:15 AM79 °FScattered clouds.3 mph49%29.86 "Hg10 mi
10:55 AM79 °FScattered clouds.5 mph48%29.86 "Hg10 mi
10:35 AM79 °FScattered clouds.5 mph51%29.86 "Hg10 mi
10:15 AM78 °FSunny.7 mph53%29.85 "Hg10 mi
9:55 AM78 °FSunny.5 mph59%29.85 "Hg10 mi
9:35 AM77 °FSunny.8 mph62%29.84 "Hg10 mi
9:15 AM76 °FSunny.7 mph66%29.84 "Hg10 mi
8:55 AM75 °FSunny.9 mph70%29.83 "Hg10 mi
8:35 AM74 °FSunny.9 mph73%29.83 "Hg10 mi
8:15 AM73 °FSunny.7 mph77%29.83 "Hg10 mi
7:55 AM72 °FSunny.5 mph81%29.83 "Hg10 mi
7:15 AM69 °FSunny.No wind87%29.82 "Hg10 mi
Weather by CustomWeather, © 2015

See weather overviewHow to use our weather pages